Zurück zum Katalog

COSMOS 2251 DEB

AktivLEO
NORAD 34579·DEBRIS·🇷🇺 Russia

Gestartet Jun 16, 1993 von Plesetsk Cosmodrome

Loading…

Nächste Überflüge (nächste 24 Stunden)

TLE

AktuellSource: Space-Track

Epoche: Sep 14, 2026, 06:38 UTC

1 34579U 93036VR  26257.27679250  .00000833  00000-0  24039-3 0  9994
2 34579  74.0510  70.5643 0026092  71.3746 349.9010 14.46014053921566

Verfolge COSMOS 2251 DEB in Echtzeit mit AllMySat

Download on the App Store